FW8740 Weather Reports


Display with metric or nautical units.
time (UTC)temp
F
wind
direction
speed
MPH
gust
MPH
rain 1hr
in
rain 24hr
in
rain mn
in
humidity
%
barometer
mb
20260906105230 61 109 0.0 0.0 0.00 0.00 0.00 96 1017.5
20260906104725 61 107 0.0 0.0 0.00 0.00 0.00 96 1017.4
20260906104224 61 107 0.0 0.0 0.00 0.00 0.00 96 1017.6
20260906103722 61 101 0.0 0.0 0.00 0.00 0.00 96 1017.1
20260906103217 61 97 0.0 0.0 0.00 0.00 0.00 96 1017.2
20260906102712 61 108 0.0 0.0 0.00 0.00 0.00 96 1017.0
20260906102211 61 107 0.0 0.0 0.00 0.00 0.00 96 1016.9
20260906101706 61 106 0.0 0.0 0.00 0.00 0.00 96 1017.1
20260906101201 61 110 0.0 0.0 0.00 0.00 0.00 96 1016.9
20260906100657 61 107 0.0 0.0 0.00 0.00 0.00 96 1017.0
20260906100157 62 101 0.0 0.0 0.00 0.00 0.00 96 1016.6
20260906095651 62 109 0.0 0.0 0.00 0.00 0.00 96 1016.8
20260906095147 62 109 0.0 0.0 0.00 0.00 0.00 96 1016.9
20260906094645 62 113 0.0 0.0 0.00 0.00 0.00 96 1016.7
20260906094141 62 104 0.0 0.0 0.00 0.00 0.00 96 1017.0
20260906093638 62 105 0.0 0.0 0.00 0.00 0.00 96 1016.8
20260906093137 62 107 0.0 0.0 0.00 0.00 0.00 96 1016.8
20260906092632 62 107 0.0 0.0 0.00 0.00 0.00 96 1016.7
20260906092127 61 106 0.0 0.0 0.00 0.00 0.00 96 1016.4
20260906091624 61 109 0.0 0.0 0.00 0.00 0.00 96 1016.6
20260906091120 62 109 0.0 0.0 0.00 0.00 0.00 96 1016.3
20260906090615 62 111 0.0 0.0 0.00 0.00 0.00 96 1016.3
20260906090114 62 112 0.0 0.0 0.00 0.00 0.00 96 1016.2
20260906085614 61 111 0.0 0.0 0.00 0.00 0.00 96 1016.2
20260906085108 61 107 0.0 0.0 0.00 0.00 0.00 96 1016.4
20260906084603 61 107 0.0 0.0 0.00 0.00 0.00 96 1016.0
20260906084102 61 107 0.0 0.0 0.00 0.00 0.00 96 1016.1
20260906083557 61 107 0.0 0.0 0.00 0.00 0.00 96 1016.1
20260906083057 61 106 0.0 0.0 0.00 0.00 0.00 96 1015.9
20260906082553 61 114 0.0 0.0 0.00 0.00 0.00 95 1015.8
20260906082048 61 119 0.0 0.0 0.00 0.00 0.00 95 1015.8
20260906081544 61 119 0.0 0.0 0.00 0.00 0.00 95 1015.9
20260906081039 61 109 0.0 0.0 0.00 0.00 0.00 95 1016.1
20260906080536 61 109 0.0 0.0 0.00 0.00 0.00 95 1016.0
20260906080031 62 109 0.0 0.0 0.00 0.00 0.00 95 1015.9
20260906075525 62 110 0.0 0.0 0.00 0.00 0.00 95 1016.0
20260906075020 62 111 0.0 0.0 0.00 0.00 0.00 95 1016.0
20260906074515 62 118 0.0 0.0 0.00 0.00 0.00 95 1016.2
20260906074013 62 117 0.0 0.0 0.00 0.00 0.00 95 1016.0
20260906073508 63 105 0.0 0.0 0.00 0.00 0.00 95 1016.0
20260906073005 63 110 0.0 0.0 0.00 0.00 0.00 95 1016.0
20260906072459 63 112 0.0 0.0 0.00 0.00 0.00 95 1016.2
20260906071955 63 108 0.0 0.0 0.00 0.00 0.00 95 1015.9
20260906071451 63 105 0.0 0.0 0.00 0.00 0.00 95 1015.8
20260906070947 63 106 0.0 0.0 0.00 0.00 0.00 95 1015.9
20260906070443 63 119 0.0 0.0 0.00 0.00 0.00 95 1015.8
20260906065938 63 113 0.0 0.0 0.00 0.00 0.00 95 1016.1
20260906065438 63 108 0.0 0.0 0.00 0.00 0.00 95 1015.9
20260906064933 63 111 0.0 0.0 0.00 0.00 0.00 95 1016.1
20260906064429 63 106 0.0 0.0 0.00 0.00 0.00 95 1015.9
20260906063924 63 115 0.0 0.0 0.00 0.00 0.00 95 1015.8
20260906063419 63 107 0.0 0.0 0.00 0.00 0.00 95 1016.1
20260906062914 63 105 0.0 0.0 0.00 0.00 0.00 95 1016.1
20260906062409 63 104 0.0 0.0 0.00 0.00 0.00 95 1016.0
20260906061904 63 107 0.0 0.0 0.00 0.00 0.00 95 1016.0
20260906061400 63 104 0.0 0.0 0.00 0.00 0.00 95 1016.2
20260906060854 63 109 0.0 0.0 0.00 0.00 0.00 95 1016.4
20260906060352 63 110 0.0 0.0 0.00 0.00 0.00 95 1016.2
20260906055848 63 112 0.0 0.0 0.00 0.00 0.00 95 1016.4
20260906055343 63 119 0.0 0.0 0.00 0.00 0.00 95 1016.2
20260906054838 63 112 0.0 0.0 0.00 0.00 0.00 95 1016.3
20260906054333 63 109 0.0 0.0 0.00 0.00 0.00 95 1016.4
20260906053830 63 109 0.0 0.0 0.00 0.00 0.00 95 1016.2
20260906053325 62 110 0.0 0.0 0.00 0.00 0.00 95 1016.1
20260906052820 62 103 0.0 0.0 0.00 0.00 0.00 95 1016.2
20260906052317 62 99 0.0 0.0 0.00 0.00 0.00 95 1016.6
20260906051814 63 100 0.0 0.0 0.00 0.00 0.00 95 1016.1
20260906051313 63 100 0.0 0.0 0.00 0.00 0.00 94 1016.2
20260906050808 63 103 0.0 0.0 0.00 0.00 0.00 94 1016.0
20260906050303 63 107 0.0 0.0 0.00 0.00 0.00 94 1016.0
20260906045802 63 121 0.0 0.0 0.00 0.00 0.00 94 1016.1
20260906045257 63 118 0.0 0.0 0.00 0.00 0.00 94 1016.2
20260906044753 63 124 0.0 0.0 0.00 0.00 0.00 94 1016.0
20260906044248 63 117 0.0 0.0 0.00 0.00 0.00 94 1016.2
20260906043744 62 115 0.0 0.0 0.00 0.00 0.00 94 1016.1
20260906043240 62 117 0.0 0.0 0.00 0.00 0.00 94 1016.2
20260906042739 62 113 0.0 0.0 0.00 0.00 0.00 94 1016.3
20260906042238 62 106 0.0 0.0 0.00 0.00 0.00 94 1016.2
20260906041734 62 104 0.0 0.0 0.00 0.00 0.00 94 1016.2
20260906041229 62 109 0.0 0.0 0.00 0.00 0.00 94 1016.4
20260906040725 62 105 0.0 0.0 0.00 0.00 0.00 94 1016.0
20260906040220 62 106 0.0 0.0 0.00 0.00 0.00 94 1016.1
20260906035715 62 106 0.0 0.0 0.00 0.00 0.00 94 1016.1
20260906035211 62 108 0.0 0.0 0.00 0.00 0.00 94 1016.2
20260906034710 62 110 0.0 0.0 0.00 0.00 0.00 94 1016.1
20260906034205 62 111 0.0 0.0 0.00 0.00 0.00 94 1016.0
20260906033701 62 111 0.0 0.0 0.00 0.00 0.00 94 1016.1
20260906033201 62 111 0.0 0.0 0.00 0.00 0.00 94 1016.0
20260906032658 62 110 0.0 0.0 0.00 0.00 0.00 94 1015.7
20260906032152 62 107 0.0 0.0 0.00 0.00 0.00 94 1016.0
20260906031647 62 98 0.0 0.0 0.00 0.00 0.00 94 1015.8
20260906031143 62 111 0.0 0.0 0.00 0.00 0.00 94 1015.7
20260906030642 62 115 0.0 0.0 0.00 0.00 0.00 94 1015.5
20260906030138 62 121 0.0 0.0 0.00 0.00 0.00 94 1015.6
20260906025637 63 121 0.0 0.0 0.00 0.00 0.00 94 1016.0
20260906025136 63 127 0.0 0.0 0.00 0.00 0.00 94 1015.9
20260906024631 63 126 0.0 0.0 0.00 0.00 0.00 94 1015.9
20260906024125 63 133 0.0 0.0 0.00 0.00 0.00 94 1016.0
20260906023621 63 128 0.0 0.0 0.00 0.00 0.00 93 1016.0
20260906023121 64 138 0.0 0.0 0.00 0.00 0.00 92 1015.6
20260906022616 64 110 0.0 0.0 0.00 0.00 0.00 91 1015.5
20260906022112 64 107 0.0 0.0 0.00 0.00 0.00 91 1015.6
20260906021608 64 107 0.0 0.0 0.00 0.00 0.00 91 1015.5
20260906021106 64 107 0.0 0.0 0.00 0.00 0.00 90 1015.7
20260906020605 64 109 0.0 0.0 0.00 0.00 0.00 90 1015.9
20260906020100 65 109 0.0 0.0 0.00 0.00 0.00 90 1015.7
20260906015554 65 108 0.0 0.0 0.00 0.00 0.00 90 1015.5
20260906015053 65 108 0.0 0.0 0.00 0.00 0.00 90 1015.6
20260906014548 65 107 0.0 0.0 0.00 0.00 0.00 89 1015.6
20260906014044 64 108 0.0 0.0 0.00 0.00 0.00 90 1015.5
20260906013539 65 108 0.0 0.0 0.00 0.00 0.00 90 1015.6
20260906013035 65 107 0.0 0.0 0.00 0.00 0.00 90 1015.5
20260906012530 65 113 0.0 0.0 0.00 0.00 0.00 90 1015.4
20260906012029 64 107 0.0 0.0 0.00 0.00 0.00 89 1015.5
20260906011526 65 107 0.0 0.0 0.00 0.00 0.00 89 1015.5
20260906011025 65 107 0.0 0.0 0.00 0.00 0.00 88 1015.3
20260906010521 64 105 0.0 0.0 0.00 0.00 0.00 88 1015.2
20260906010017 65 111 0.0 0.0 0.00 0.00 0.00 89 1015.4
20260906005516 65 113 0.0 0.0 0.00 0.00 0.00 88 1015.1
20260906005015 66 114 0.0 0.0 0.00 0.00 0.00 87 1015.1
20260906004509 66 112 0.0 0.0 0.00 0.00 0.00 86 1015.2
20260906004004 66 112 0.0 0.0 0.00 0.00 0.00 86 1015.0
20260906003459 66 113 0.0 0.0 0.00 0.00 0.00 86 1015.1
20260906002954 66 110 0.0 0.0 0.00 0.00 0.00 85 1014.9
20260906002449 67 109 0.0 0.0 0.00 0.00 0.00 85 1014.9
20260906001944 67 112 0.0 0.0 0.00 0.00 0.00 84 1014.9
20260906001440 67 108 0.0 0.0 0.00 0.00 0.00 84 1014.8
20260906000934 67 109 0.0 0.0 0.00 0.00 0.00 84 1014.6
20260906000430 67 107 0.0 0.0 0.00 0.00 0.00 84 1014.8
20260905235925 68 106 0.0 0.0 0.00 0.00 0.00 83 1014.6
20260905235424 68 112 0.0 0.0 0.00 0.00 0.00 84 1014.5
20260905234919 68 111 0.0 0.0 0.00 0.00 0.00 82 1014.4
20260905234415 68 109 0.0 0.0 0.00 0.00 0.00 80 1014.7
20260905233909 69 105 0.0 0.0 0.00 0.00 0.00 80 1014.5
20260905233405 69 109 0.0 0.0 0.00 0.00 0.00 79 1014.4
20260905232903 70 111 0.0 0.0 0.00 0.00 0.00 79 1014.4
20260905232400 70 108 0.0 0.0 0.00 0.00 0.00 78 1014.4
20260905231855 70 107 0.0 0.0 0.00 0.00 0.00 78 1014.4
20260905231350 71 106 0.0 0.0 0.00 0.00 0.00 77 1014.4
20260905230847 71 111 0.0 0.0 0.00 0.00 0.00 77 1014.4
20260905230344 72 108 0.0 0.0 0.00 0.00 0.00 76 1014.4
20260905225844 72 111 0.0 0.0 0.00 0.00 0.00 74 1014.4
20260905225339 73 106 0.0 0.0 0.00 0.00 0.00 74 1014.0
20260905224834 73 108 0.0 0.0 0.00 0.00 0.00 73 1014.1
20260905224329 73 109 0.0 0.0 0.00 0.00 0.00 72 1014.1
20260905223824 73 112 0.0 0.0 0.00 0.00 0.00 71 1014.0
20260905223322 74 113 0.0 0.0 0.00 0.00 0.00 71 1014.0
20260905222817 74 110 0.0 1.0 0.00 0.00 0.00 70 1014.0
20260905222316 74 111 0.0 0.0 0.00 0.00 0.00 70 1014.2
20260905221812 75 107 0.0 1.0 0.00 0.00 0.00 69 1013.8
20260905221309 75 103 0.0 1.0 0.00 0.00 0.00 67 1013.9
20260905220804 75 106 0.0 0.0 0.00 0.00 0.00 67 1014.0
20260905220300 76 94 1.0 2.0 0.00 0.00 0.00 65 1013.8
20260905215759 77 116 1.0 2.0 0.00 0.00 0.00 65 1013.8
20260905215255 78 105 1.0 2.0 0.00 0.00 0.00 62 1013.7
20260905214750 78 108 0.0 1.0 0.00 0.00 0.00 64 1013.6
20260905214246 77 89 1.0 1.0 0.00 0.00 0.00 64 1013.7
20260905213741 76 111 1.0 1.0 0.00 0.00 0.00 68 1013.9
20260905213237 76 107 0.0 1.0 0.00 0.00 0.00 65 1013.4
20260905212732 77 81 1.0 1.0 0.00 0.00 0.00 62 1013.5
20260905212232 77 278 1.0 1.0 0.00 0.00 0.00 64 1013.6
20260905211731 79 84 0.0 2.0 0.00 0.00 0.00 62 1013.7
20260905211226 80 346 1.0 2.0 0.00 0.00 0.00 62 1013.7
20260905210723 80 72 1.0 2.0 0.00 0.00 0.00 60 1013.6
20260905210223 80 66 1.0 1.0 0.00 0.00 0.00 61 1013.5
20260905205722 79 119 1.0 1.0 0.00 0.00 0.00 61 1013.4
20260905205217 78 76 0.0 2.0 0.00 0.00 0.00 62 1013.3
20260905204716 80 52 2.0 3.0 0.00 0.00 0.00 58 1013.3
20260905204212 79 95 1.0 2.0 0.00 0.00 0.00 61 1013.5
20260905203712 79 126 1.0 2.0 0.00 0.00 0.00 60 1013.2
20260905203208 79 176 3.0 3.0 0.00 0.00 0.00 58 1013.3
20260905202703 78 55 1.0 2.0 0.00 0.00 0.00 62 1013.3
20260905202158 79 104 0.0 2.0 0.00 0.00 0.00 59 1013.2
20260905201654 80 117 2.0 6.0 0.00 0.00 0.00 61 1013.3
20260905201153 80 101 1.0 5.0 0.00 0.00 0.00 60 1013.0
20260905200648 80 78 2.0 2.0 0.00 0.00 0.00 60 1013.4
20260905200144 80 118 1.0 1.0 0.00 0.00 0.00 63 1013.4
20260905195642 80 130 1.0 2.0 0.00 0.00 0.00 59 1013.4
20260905195137 80 147 2.0 2.0 0.00 0.00 0.00 58 1013.5
20260905194632 80 96 0.0 1.0 0.00 0.00 0.00 61 1013.4
20260905194131 79 114 1.0 2.0 0.00 0.00 0.00 61 1013.5
20260905193626 80 71 1.0 3.0 0.00 0.00 0.00 59 1013.4
20260905193121 79 88 0.0 1.0 0.00 0.00 0.00 59 1013.2
20260905192617 80 26 2.0 3.0 0.00 0.00 0.00 59 1013.4
20260905192113 80 86 1.0 3.0 0.00 0.00 0.00 60 1013.6
20260905191612 78 74 2.0 2.0 0.00 0.00 0.00 57 1013.6
20260905191111 79 102 1.0 3.0 0.00 0.00 0.00 59 1013.3
20260905190609 80 356 3.0 3.0 0.00 0.00 0.00 59 1013.3
20260905190108 79 349 3.0 5.0 0.00 0.00 0.00 60 1013.6
20260905185607 80 39 2.0 3.0 0.00 0.00 0.00 58 1013.5
20260905185102 79 124 0.0 3.0 0.00 0.00 0.00 62 1013.5
20260905184556 80 100 1.0 3.0 0.00 0.00 0.00 59 1013.4
20260905184055 79 156 1.0 1.0 0.00 0.00 0.00 63 1013.5
20260905183549 78 121 1.0 3.0 0.00 0.00 0.00 64 1013.7
20260905183044 78 75 1.0 3.0 0.00 0.00 0.00 64 1013.8
20260905182539 79 83 3.0 5.0 0.00 0.00 0.00 62 1013.8
20260905182038 79 69 2.0 2.0 0.00 0.00 0.00 64 1013.5
20260905181533 79 112 3.0 3.0 0.00 0.00 0.00 63 1013.9
20260905181033 78 83 1.0 2.0 0.00 0.00 0.00 66 1013.8
20260905180527 77 83 1.0 5.0 0.00 0.00 0.00 65 1014.0
20260905180023 78 72 5.0 6.0 0.00 0.00 0.00 61 1013.9
20260905175522 78 47 3.0 5.0 0.00 0.00 0.00 63 1013.7
20260905175018 77 96 0.0 1.0 0.00 0.00 0.00 67 1013.9
20260905174513 79 113 1.0 3.0 0.00 0.00 0.00 65 1013.9
20260905174009 78 87 1.0 2.0 0.00 0.00 0.00 63 1013.9
20260905173505 78 52 2.0 3.0 0.00 0.00 0.00 64 1014.0
20260905173000 77 142 2.0 3.0 0.00 0.00 0.00 63 1014.1
20260905172458 77 101 0.0 2.0 0.00 0.00 0.00 65 1014.1
20260905171954 75 76 1.0 2.0 0.00 0.00 0.00 66 1014.1
20260905171450 77 119 0.0 3.0 0.00 0.00 0.00 66 1014.1
20260905170946 77 78 1.0 2.0 0.00 0.00 0.00 68 1014.1
20260905170442 77 91 1.0 2.0 0.00 0.00 0.00 65 1014.2
20260905165942 79 92 1.0 5.0 0.00 0.00 0.00 64 1014.1
20260905165437 79 98 1.0 2.0 0.00 0.00 0.00 62 1014.1
20260905164932 77 83 0.0 1.0 0.00 0.00 0.00 66 1014.5
20260905164426 76 165 1.0 1.0 0.00 0.00 0.00 66 1014.1
20260905163921 76 144 1.0 3.0 0.00 0.00 0.00 66 1014.2
20260905163418 76 100 2.0 2.0 0.00 0.00 0.00 65 1014.1
20260905162913 78 88 1.0 5.0 0.00 0.00 0.00 65 1014.2
20260905162408 76 158 1.0 5.0 0.00 0.00 0.00 65 1014.2
20260905161903 75 115 3.0 6.0 0.00 0.00 0.00 66 1014.2
20260905161402 75 42 3.0 3.0 0.00 0.00 0.00 66 1014.2
20260905160900 75 69 4.0 6.0 0.00 0.00 0.00 66 1014.0
20260905160354 76 67 3.0 5.0 0.00 0.00 0.00 69 1014.2
20260905155849 76 131 1.0 2.0 0.00 0.00 0.00 70 1014.0
20260905155349 74 192 1.0 3.0 0.00 0.00 0.00 67 1014.0
20260905154848 74 76 2.0 3.0 0.00 0.00 0.00 67 1014.3
20260905154344 76 76 1.0 2.0 0.00 0.00 0.00 67 1014.0
20260905153839 74 3 1.0 2.0 0.00 0.00 0.00 67 1014.2
20260905153336 74 80 1.0 3.0 0.00 0.00 0.00 68 1014.2
20260905152835 74 106 1.0 2.0 0.00 0.00 0.00 70 1014.1
20260905152334 74 71 1.0 3.0 0.00 0.00 0.00 70 1014.1
20260905151829 73 95 0.0 2.0 0.00 0.00 0.00 74 1014.1
20260905151325 74 102 1.0 3.0 0.00 0.00 0.00 70 1014.0
20260905150825 73 109 0.0 3.0 0.00 0.00 0.00 72 1014.3
20260905150320 72 108 1.0 3.0 0.00 0.00 0.00 74 1014.3
20260905145817 72 87 1.0 2.0 0.00 0.00 0.00 74 1014.4
20260905145316 73 99 1.0 3.0 0.00 0.00 0.00 71 1014.3
20260905144815 74 72 1.0 2.0 0.00 0.00 0.00 71 1014.2
20260905144312 73 113 1.0 7.0 0.00 0.00 0.00 72 1014.1
20260905143810 73 81 1.0 3.0 0.00 0.00 0.00 73 1014.2
20260905143305 73 12 1.0 2.0 0.00 0.00 0.00 72 1014.0
20260905142803 73 111 0.0 3.0 0.00 0.00 0.00 73 1014.1
20260905142257 72 114 1.0 10.0 0.00 0.00 0.00 75 1014.2
20260905141754 72 232 2.0 3.0 0.00 0.00 0.00 75 1014.2
20260905141249 72 52 1.0 5.0 0.00 0.00 0.00 75 1014.1
20260905140745 71 108 1.0 2.0 0.00 0.00 0.00 75 1014.0
20260905140245 71 77 2.0 2.0 0.00 0.00 0.00 76 1014.2
20260905135743 71 137 1.0 3.0 0.00 0.00 0.00 78 1014.2
20260905135240 71 98 1.0 6.0 0.00 0.00 0.00 78 1013.9
20260905134739 71 162 1.0 2.0 0.00 0.00 0.00 80 1014.0
20260905134239 71 86 1.0 2.0 0.00 0.00 0.00 79 1014.1
20260905133733 71 116 1.0 2.0 0.00 0.00 0.00 79 1014.1
20260905133229 70 76 1.0 2.0 0.00 0.00 0.00 81 1014.1
20260905132727 70 83 3.0 5.0 0.00 0.00 0.00 81 1014.1
20260905132223 70 47 3.0 3.0 0.00 0.00 0.00 81 1014.2
20260905131718 69 72 0.0 2.0 0.00 0.00 0.00 82 1014.3
20260905131213 69 39 3.0 3.0 0.00 0.00 0.00 84 1014.1
20260905130708 69 95 0.0 1.0 0.00 0.00 0.00 85 1014.0
20260905130207 68 95 1.0 2.0 0.00 0.00 0.00 86 1014.2
20260905125702 68 96 0.0 1.0 0.00 0.00 0.00 88 1014.4
20260905125158 67 104 0.0 1.0 0.00 0.00 0.00 89 1014.3
20260905124654 67 97 1.0 2.0 0.00 0.00 0.00 91 1014.3
20260905124150 66 98 1.0 1.0 0.00 0.00 0.00 92 1014.3
20260905123644 66 106 0.0 1.0 0.00 0.00 0.00 94 1014.4
20260905123142 65 100 0.0 0.0 0.00 0.00 0.00 94 1014.5
20260905122641 64 94 0.0 1.0 0.00 0.00 0.00 94 1014.2
20260905122136 64 104 0.0 0.0 0.00 0.00 0.00 94 1014.6
20260905121631 64 94 0.0 0.0 0.00 0.00 0.00 95 1014.4
20260905121126 63 91 0.0 0.0 0.00 0.00 0.00 95 1014.3
20260905120625 63 83 0.0 0.0 0.00 0.00 0.00 95 1014.8
20260905120120 62 78 0.0 0.0 0.00 0.00 0.00 95 1014.5
20260905115620 62 95 0.0 0.0 0.00 0.00 0.00 95 1014.5
20260905115115 62 87 0.0 0.0 0.00 0.00 0.00 95 1014.4
20260905114614 62 87 0.0 0.0 0.00 0.00 0.00 96 1014.2
20260905114113 61 88 0.0 0.0 0.00 0.00 0.00 96 1014.2
20260905113608 61 82 0.0 0.0 0.00 0.00 0.00 96 1014.2
20260905113104 61 89 0.0 0.0 0.00 0.00 0.00 96 1014.1
20260905112558 61 90 0.0 0.0 0.00 0.00 0.00 96 1014.2
20260905112053 60 97 0.0 0.0 0.00 0.00 0.00 96 1014.0
20260905111543 60 93 0.0 0.0 0.00 0.00 0.00 95 1013.8
20260905111042 60 88 0.0 0.0 0.00 0.00 0.00 95 1013.7
20260905110541 60 99 0.0 0.0 0.00 0.00 0.00 95 1013.4
20260905110037 60 96 0.0 0.0 0.00 0.00 0.00 95 1013.7
20260905105537 60 99 0.0 0.0 0.00 0.00 0.00 95 1013.7